Retour au catalogue

CZ-6A DEB

ActifPO
NORAD 61174·DEBRIS·🇨🇳 China

Lancé Aug 6, 2024 depuis Taiyuan Satellite Launch Center

Loading…

Prochains Passages (prochaines 24 heures)

TLE

FraisSource: Space-Track

Époque: Sep 14, 2026, 23:11 UTC

1 61174U 24140RU  26257.96624557  .00000260  00000-0  83148-4 0  9992
2 61174  88.9805 260.9536 0071780  79.0767 281.8498 14.35085135108159

Suivez CZ-6A DEB en temps réel avec AllMySat

Download on the App Store